Jackson, MI

5:06 PM EDT on October 21, 2019 (GMT -0400)
Jackson County-Reynolds

Weather History for KJXN - May, 2019

Change the Weather History Date:

Thursday, May 9, 2019

  Actual Average Record
Temperature  
Mean Temperature 63 °F 56 °F  
Max Temperature 74 °F 67 °F 88 °F (1979)
Min Temperature 51 °F 44 °F 26 °F (1955)
Degree Days  
Heating Degree Days 2 10  
Month to date heating degree days 90 100  
Since 1 July heating degree days 6487 6446  
Cooling Degree Days 0 1  
Month to date cooling degree days 0 2  
Year to date cooling degree days 0 8  
Growing Degree Days 12 (Base 50)    
Moisture  
Dew Point 56 °F    
Average Humidity 74    
Maximum Humidity 93    
Minimum Humidity 54    
Precipitation  
Precipitation 0.17 in 0.10 in 1.31 in (1956)
Month to date precipitation 0.90 0.90  
Year to date precipitation 9.14 8.19  
Sea Level Pressure  
Sea Level Pressure 29.77 in    
Wind  
Wind Speed 12 mph (SSW)    
Max Wind Speed 24 mph    
Max Gust Speed 36 mph    
Visibility 10 miles    
Events Rain    
T = Trace of Precipitation, MM = Missing Value Source: NWS Daily Summary

Daily Weather History Graph

Daily Weather History Graph

Search for Another Location

Airport or City:

Astronomy

May. 09, 2019 Rise Set
Actual Time 6:23 AM EDT 8:45 PM EDT
Civil Twilight 5:52 AM EDT 9:17 PM EDT
Nautical Twilight 5:13 AM EDT 9:56 PM EDT
Astronomical Twilight 4:29 AM EDT 10:40 PM EDT
Moon 10:15 AM EDT (5/9) 12:46 AM EDT (5/9)
Length of Visible Light 15h 25m
Length of Day
14h 22m
Waxing Crescent, 24% of the Moon is Illuminated
May 9
Waxing Crescent
May 11
First Quarter
May 18
Full
May 26
Last Quarter
Jun 3
New

Hourly Weather History & Observations

Time (EDT) Temp. Dew Point Humidity Pressure Visibility Wind Dir Wind Speed Gust Speed Precip Events Conditions
12:56 AM 52.0 °F 36.0 °F 54% 29.94 in 10.0 mi East 12.7 mph 24.2 mph N/A   Clear
1:56 AM 51.1 °F 37.0 °F 59% 29.90 in 10.0 mi East 16.1 mph 27.6 mph N/A   Clear
2:56 AM 51.1 °F 39.0 °F 63% 29.87 in 10.0 mi East 13.8 mph 21.9 mph N/A   Clear
3:56 AM 51.1 °F 41.0 °F 68% 29.84 in 10.0 mi East 12.7 mph 20.7 mph N/A   Clear
4:56 AM 52.0 °F 43.0 °F 71% 29.81 in 10.0 mi East 8.1 mph 18.4 mph N/A   Partly Cloudy
5:56 AM 53.1 °F 46.0 °F 77% 29.79 in 10.0 mi ESE 8.1 mph - N/A   Scattered Clouds
6:56 AM 55.0 °F 48.0 °F 77% 29.77 in 10.0 mi ESE 9.2 mph - N/A   Scattered Clouds
7:56 AM 57.0 °F 51.1 °F 81% 29.75 in 10.0 mi ESE 10.4 mph - N/A   Scattered Clouds
8:56 AM 60.1 °F 54.0 °F 80% 29.72 in 10.0 mi SE 10.4 mph 19.6 mph N/A   Scattered Clouds
9:56 AM 64.9 °F 57.9 °F 78% 29.70 in 10.0 mi SE 13.8 mph 28.8 mph N/A   Overcast
10:56 AM 66.0 °F 62.1 °F 87% 29.70 in 6.0 mi South 11.5 mph 21.9 mph 0.10 in Rain Light Rain
11:56 AM 66.0 °F 64.0 °F 93% 29.73 in 10.0 mi South 10.4 mph - 0.02 in   Overcast
12:28 PM 66.9 °F 64.9 °F 93% 29.74 in 10.0 mi SSW 13.8 mph - N/A   Mostly Cloudy
12:56 PM 70.0 °F 64.9 °F 84% 29.73 in 10.0 mi SSW 10.4 mph - N/A   Mostly Cloudy
1:09 PM 71.1 °F 64.9 °F 81% 29.73 in 10.0 mi SSW 11.5 mph 24.2 mph N/A   Mostly Cloudy
1:56 PM 71.1 °F 63.0 °F 75% 29.73 in 10.0 mi SSW 16.1 mph 24.2 mph N/A   Overcast
2:33 PM 73.0 °F 63.0 °F 71% 29.74 in 10.0 mi SW 15.0 mph 28.8 mph N/A   Mostly Cloudy
2:56 PM 73.0 °F 64.0 °F 73% 29.74 in 10.0 mi SSW 16.1 mph 29.9 mph N/A   Mostly Cloudy
3:56 PM 72.0 °F 62.1 °F 71% 29.75 in 10.0 mi SSW 18.4 mph 33.4 mph N/A   Overcast
4:56 PM 73.9 °F 63.0 °F 68% 29.73 in 10.0 mi SSW 16.1 mph 24.2 mph N/A   Mostly Cloudy
5:56 PM 73.0 °F 60.1 °F 64% 29.74 in 10.0 mi SW 18.4 mph 27.6 mph N/A   Mostly Cloudy
6:35 PM 66.9 °F 63.0 °F 87% 29.76 in 2.0 mi SSW 16.1 mph 33.4 mph 0.04 in Rain Light Rain
6:42 PM 68.0 °F 64.0 °F 87% 29.75 in 10.0 mi SSW 11.5 mph - 0.05 in Rain Light Rain
6:56 PM 68.0 °F 64.0 °F 87% 29.75 in 10.0 mi SSW 10.4 mph - 0.05 in   Mostly Cloudy
7:56 PM 66.9 °F 62.1 °F 84% 29.77 in 10.0 mi WSW 10.4 mph - N/A   Scattered Clouds
8:41 PM 64.9 °F 62.1 °F 90% 29.78 in 10.0 mi SW 8.1 mph - N/A   Mostly Cloudy
8:56 PM 64.0 °F 62.1 °F 93% 29.78 in 10.0 mi SW 6.9 mph - N/A   Overcast
9:09 PM 63.0 °F 61.0 °F 93% 29.79 in 10.0 mi SW 5.8 mph - N/A   Mostly Cloudy
9:44 PM 64.0 °F 59.0 °F 84% 29.80 in 10.0 mi WSW 10.4 mph - N/A   Overcast
9:56 PM 63.0 °F 57.9 °F 84% 29.80 in 10.0 mi West 10.4 mph - N/A   Overcast
10:56 PM 59.0 °F 53.1 °F 81% 29.83 in 10.0 mi WSW 10.4 mph - N/A   Overcast
11:56 PM 55.0 °F 48.0 °F 77% 29.83 in 10.0 mi West 8.1 mph - N/A   Overcast